Location: Curupao
(10.4996°N, 66.6442°W)
Time: 02:01:03
(UTC+00:00)

ATLAS 5 CENTAUR R/B - Pass Details

Date: 23 May 2024
Orbit: 419 x 1168 km, 63.3° (Epoch: 12 June)

Event Time Altitude Azimuth Distance (km) Brightness Sun altitude
Rises 01:06:56 0° 320° (NW) 3,539 6.4 -32.6°
Reaches altitude 10° 01:09:28 10° 313° (NW) 2,701 5.6 -33.1°
Maximum altitude 01:15:25 39° 247° (WSW) 1,564 3.7 -34.3°
Enters shadow 01:16:20 37° 230° (SW) 1,619 3.6 -34.5°
